STARLINK-36991

Last updated on Mon Mar 30 2026 00:02:05 GMT+0000 (Coordinated Universal Time)

1 68011U 26039AB 26088.16668981 -.01944219 00000+0 -40384-1 0 9996 2 68011 42.9995 299.2810 0000974 273.2746 253.5971 15.48106700 6008
UTC large
Height (km)
Speed (km/s)
/
Latitude / Longitude
Inclination (degrees)
Orbital Period (minutes)
Azimuth
Elevation
Range (km)
Doppler Factor

Next 0 passes for location: London (51.5072 / 0.1276)

Sorry there are no passes over London.